Weather History for LGAL - November, 2013

Change the Weather History Date:

Saturday, November 30, 2013

  Actual Average Record
Temperature  
Mean Temperature 44 °F -  
Max Temperature 52 °F 51 °F 68 °F (2010)
Min Temperature 35 °F 38 °F 30 °F (1999)
Degree Days  
Heating Degree Days 22    
Moisture  
Dew Point 33 °F    
Average Humidity 68    
Maximum Humidity 87    
Minimum Humidity 43    
Precipitation  
Precipitation 0.00 in 0.11 in - ()
Sea Level Pressure  
Sea Level Pressure 30.23 in    
Wind  
Wind Speed 7 mph ()    
Max Wind Speed 16 mph    
Max Gust Speed -    
Visibility 6.2 miles    
Events      
Averages and records for this station are not official NWS values.
T = Trace of Precipitation, MM = Missing Value Source: Averaged Metar Reports

Daily Weather History Graph

Daily Weather History Graph

Search for Another Location

Airport or City:

Trip Planner

Search our weather history database for the weather conditions in past years. The results will help you decide how hot, cold, wet, or windy it might be!

Date:

Astronomy

Nov. 30, 2013 Rise Set
Actual Time 7:20 AM EET 4:49 PM EET
Civil Twilight 6:49 AM EET 5:19 PM EET
Nautical Twilight 6:15 AM EET 5:53 PM EET
Astronomical Twilight 5:42 AM EET 6:26 PM EET
Moon 4:08 AM EET (11/30) 3:01 PM EET (11/30)
Length of Visible Light 10h 30m
Length of Day
9h 29m
Waning Crescent, 9% of the Moon is Illuminated
Nov 30
Waning Crescent
Dec 3
New
Dec 9
First Quarter
Dec 17
Full
Dec 25
Last Quarter

Hourly Weather History & Observations

Time (EET) Temp. Windchill Dew Point Humidity Pressure Visibility Wind Dir Wind Speed Gust Speed Precip Events Conditions
12:20 AM 35.6 °F 29.9 °F 30.2 °F 81% 30.24 in - East 6.9 mph - N/A   Clear
12:50 AM 37.4 °F 28.5 °F 32.0 °F 81% 30.24 in 6.2 mi ENE 15.0 mph - N/A   Scattered Clouds
1:20 AM 37.4 °F 28.2 °F 32.0 °F 81% 30.24 in 6.2 mi NNE 16.1 mph - N/A   Scattered Clouds
1:50 AM 37.4 °F 30.8 °F 32.0 °F 81% 30.24 in 6.2 mi ENE 9.2 mph - N/A   Scattered Clouds
2:00 AM 38 °F - 31 °F 68% 30.25 in 6 mi ENE 9.2 mph - -   Scattered Clouds
2:20 AM 37.4 °F 29.3 °F 32.0 °F 81% 30.24 in 6.2 mi ENE 12.7 mph - N/A   Scattered Clouds
2:50 AM 37.4 °F 31.4 °F 30.2 °F 75% 30.24 in 6.2 mi ENE 8.1 mph - N/A   Scattered Clouds
3:20 AM 37.4 °F 31.4 °F 30.2 °F 75% 30.24 in 6.2 mi ENE 8.1 mph - N/A   Scattered Clouds
3:50 AM 35.6 °F 28.6 °F 28.4 °F 75% 30.24 in 6.2 mi ENE 9.2 mph - N/A   Partly Cloudy
4:20 AM 37.4 °F 31.4 °F 28.4 °F 70% 30.24 in 6.2 mi ENE 8.1 mph - N/A   Scattered Clouds
4:50 AM 37.4 °F 31.4 °F 28.4 °F 70% 30.24 in 6.2 mi ENE 8.1 mph - N/A   Scattered Clouds
5:20 AM 37.4 °F 31.4 °F 28.4 °F 70% 30.24 in 6.2 mi ENE 8.1 mph - N/A   Scattered Clouds
5:50 AM 37.4 °F 30.8 °F 28.4 °F 70% 30.24 in 6.2 mi NE 9.2 mph - N/A   Mostly Cloudy
6:20 AM 37.4 °F 30.8 °F 28.4 °F 70% 30.24 in 6.2 mi NE 9.2 mph - N/A   Mostly Cloudy
6:50 AM 37.4 °F 31.4 °F 28.4 °F 70% 30.24 in 6.2 mi NE 8.1 mph - N/A   Mostly Cloudy
7:20 AM 37.4 °F 31.4 °F 28.4 °F 70% 30.24 in 6.2 mi NNE 8.1 mph - N/A   Mostly Cloudy
7:50 AM 39.2 °F 35.0 °F 30.2 °F 70% 30.21 in 6.2 mi NE 5.8 mph - N/A   Mostly Cloudy
8:00 AM 39 °F - 30 °F 60% 30.24 in 6 mi NE 5.8 mph - -   Scattered Clouds
8:20 AM 41.0 °F 37.1 °F 30.2 °F 65% 30.21 in 6.2 mi NE 5.8 mph - N/A   Mostly Cloudy
8:50 AM 42.8 °F 40.1 °F 32.0 °F 66% 30.24 in 6.2 mi NE 4.6 mph - N/A   Mostly Cloudy
9:20 AM 42.8 °F 40.1 °F 32.0 °F 66% 30.24 in 6.2 mi NE 4.6 mph - N/A   Mostly Cloudy
9:50 AM 42.8 °F 40.1 °F 30.2 °F 61% 30.24 in 6.2 mi NE 4.6 mph - N/A   Scattered Clouds
10:20 AM 46.4 °F 44.3 °F 33.8 °F 62% 30.24 in 6.2 mi NE 4.6 mph - N/A   Scattered Clouds
10:50 AM 48.2 °F - 30.2 °F 50% 30.24 in 6.2 mi ENE 6.9 mph - N/A   Scattered Clouds
11:20 AM 48.2 °F - 30.2 °F 50% 30.24 in 6.2 mi East 4.6 mph - N/A   Scattered Clouds
11:50 AM 50.0 °F - 32.0 °F 50% 30.24 in 6.2 mi East 5.8 mph - N/A   Scattered Clouds
12:20 PM 50.0 °F - 32.0 °F 50% 30.24 in 6.2 mi ENE 4.6 mph - N/A   Scattered Clouds
12:50 PM 50.0 °F - 30.2 °F 47% 30.21 in 6.2 mi ENE 4.6 mph - N/A   Scattered Clouds
1:20 PM 50.0 °F - 30.2 °F 47% 30.21 in 6.2 mi NE 4.6 mph - N/A   Scattered Clouds
1:50 PM 51.8 °F - 35.6 °F 54% 30.21 in 6.2 mi East 4.6 mph - N/A   Partly Cloudy
2:00 PM 52 °F - 36 °F 43% 30.22 in 6 mi East 4.6 mph - -   Scattered Clouds
2:20 PM 51.8 °F - 35.6 °F 54% 30.21 in 6.2 mi ESE 4.6 mph - N/A   Partly Cloudy
2:50 PM 53.6 °F - 35.6 °F 51% 30.21 in 6.2 mi Variable 3.5 mph - N/A   Partly Cloudy
3:20 PM 53.6 °F - 35.6 °F 51% 30.21 in 6.2 mi Variable 3.5 mph - N/A   Partly Cloudy
3:50 PM 51.8 °F - 33.8 °F 50% 30.21 in 6.2 mi Variable 3.5 mph - N/A   Scattered Clouds
4:20 PM 50.0 °F - 33.8 °F 54% 30.21 in 6.2 mi East 4.6 mph - N/A   Scattered Clouds
4:50 PM 48.2 °F - 39.2 °F 71% 30.18 in 6.2 mi ENE 4.6 mph - N/A   Mostly Cloudy
5:20 PM 48.2 °F - 39.2 °F 71% 30.18 in 6.2 mi ENE 4.6 mph - N/A   Mostly Cloudy
5:50 PM 46.4 °F 44.3 °F 39.2 °F 76% 30.21 in 6.2 mi North 4.6 mph - N/A   Mostly Cloudy
6:20 PM 44.6 °F 42.2 °F 39.2 °F 81% 30.21 in 6.2 mi North 4.6 mph - N/A   Mostly Cloudy
6:50 PM 42.8 °F 41.1 °F 37.4 °F 81% 30.21 in 6.2 mi Variable 3.5 mph - N/A   Mostly Cloudy
7:20 PM 42.8 °F 41.1 °F 37.4 °F 81% 30.21 in 6.2 mi Variable 3.5 mph - N/A   Mostly Cloudy
7:50 PM 42.8 °F 40.1 °F 35.6 °F 76% 30.21 in 6.2 mi North 4.6 mph - N/A   Mostly Cloudy
8:00 PM 43 °F - 36 °F 69% 30.24 in 6 mi North 4.6 mph - -   Scattered Clouds
8:20 PM 42.8 °F 40.1 °F 35.6 °F 76% 30.21 in - North 4.6 mph - N/A   Clear
8:50 PM 42.8 °F 40.1 °F 35.6 °F 76% 30.24 in - North 4.6 mph - N/A   Clear
9:20 PM 42.8 °F 41.1 °F 35.6 °F 76% 30.24 in - Variable 3.5 mph - N/A   Clear
9:50 PM 42.8 °F 41.1 °F 37.4 °F 81% 30.24 in - Variable 3.5 mph - N/A   Clear
10:20 PM 41.0 °F 38.0 °F 37.4 °F 87% 30.24 in - NE 4.6 mph - N/A   Clear
10:50 PM 41.0 °F 38.0 °F 35.6 °F 81% 30.24 in - ENE 4.6 mph - N/A   Clear
11:20 PM 41.0 °F 38.0 °F 35.6 °F 81% 30.24 in - ENE 4.6 mph - N/A   Clear
11:50 PM 41.0 °F 39.0 °F 35.6 °F 81% 30.24 in - Variable 3.5 mph - N/A   Clear